Location: Quispamsis
(45.4447°N, 65.9414°W)
Time: 03:44:49
(UTC-03:00)

Daily predictions for brighter satellites

Satellite Brightness Start Highest point End
(mag) Time Altitude Azimuth Time Altitude Azimuth Time Altitude Azimuth
CZ-4B R/B 3.4 00:03:22 18° E 00:04:03 19° ENE 00:06:33 10° NNE
Cosmos 2181 Rocket 4.1 00:02:13 10° N 00:08:37 77° W 00:12:03 30° S
CZ-4C R/B 3.7 00:03:06 10° NNW 00:09:37 43° NE 00:16:37 11° ESE
COSMOS 2455 3.0 00:05:29 10° NW 00:11:26 63° WSW 00:14:03 34° S
Cosmos 158 Rocket 4.1 00:09:04 10° NNW 00:14:23 68° ENE 00:16:25 36° SE
SL-16 R/B 2.4 00:10:15 10° NNW 00:15:53 64° WSW 00:18:12 35° S
Cosmos 1933 4.0 00:12:04 10° NNW 00:16:00 48° W 00:17:12 36° SW
Cosmos 2333 Rocket 3.8 00:11:56 10° NW 00:16:32 25° WSW 00:19:24 17° SW
Cosmos 2184 Rocket 4.1 00:17:07 34° SSE 00:19:45 59° E 00:25:49 10° NNE
Cosmos 372 Rocket 3.9 00:18:28 38° S 00:20:30 73° ESE 00:25:44 10° NNE
FALCON 9 R/B 3.5 00:08:59 10° W 00:25:04 38° SSW 00:27:16 32° S
Cosmos 44 Rocket 3.4 00:23:54 39° S 00:25:42 65° ESE 00:30:55 10° NE
CZ-2C R/B 4.3 00:22:48 10° NE 00:26:12 17° E 00:27:17 16° ESE
BREEZE-M DEB (TANK) 4.0 00:24:17 10° W 00:25:19 22° WSW 00:25:19 22° WSW
Cosmos 1782 4.1 00:24:10 10° NNE 00:27:36 28° ENE 00:28:24 26° E
Cosmos 374 Rocket 4.4 00:24:05 10° NW 00:27:59 89° NE 00:29:12 48° SE
Terra 3.7 00:26:42 15° SW 00:29:06 21° W 00:32:41 10° NW
Cosmos 2297 Rocket 3.0 00:23:49 10° SW 00:29:13 50° WNW 00:34:43 10° NNE
ERBS 4.1 00:27:09 10° W 00:30:23 34° NNW 00:33:36 10° NE
ATLAS 2AS CENTAUR R/B 3.4 00:23:54 10° SW 00:31:30 66° NW 00:39:37 10° NE
Cosmos 2219 Rocket 4.4 00:29:05 10° WNW 00:31:47 14° W 00:34:29 10° SW
H-2A R/B 3.0 00:27:57 10° NNE 00:32:00 43° E 00:32:31 41° ESE
Cosmos 1340 Rocket 3.3 00:34:55 42° ESE 00:35:05 42° E 00:38:49 10° NNE
Cosmos 1943 4.3 00:32:36 10° NNW 00:37:54 38° NE 00:41:20 20° ESE
Cosmos 1733 Rocket 3.6 00:37:15 41° ESE 00:37:57 45° E 00:42:13 10° NNE
Aureole 2 Rocket 2.3 00:34:58 10° NNW 00:38:01 78° WNW 00:38:01 78° WNW
Cosmos 1869 Rocket 4.2 00:36:29 32° SW 00:38:13 50° WNW 00:42:36 10° N
ATLAS 3B R/B 3.2 00:36:22 10° NW 00:42:53 43° WSW 00:45:16 31° SSW
Helios 1A Rocket 4.0 00:41:32 10° NNE 00:45:17 31° E 00:45:30 31° ESE
CZ-4C R/B 2.9 00:45:36 80° SW 00:45:42 82° WSW 00:49:20 10° NNW
Uosat 12 SS-18 rocket 4.2 00:47:06 50° S 00:48:05 63° ESE 00:52:30 10° NE
Cosmos 1603 3.6 00:44:16 10° NNW 00:49:59 85° WSW 00:52:01 42° SSE
ALOS 2 2.5 00:52:44 57° S 00:53:36 85° WSW 00:58:02 10° NNW
USA 238 DEB 3.7 00:48:17 10° NW 00:55:18 71° WSW 00:58:21 36° SSE
USA 238 3.7 00:48:23 10° NW 00:55:24 72° WSW 00:58:28 36° SSE
Okean 1-7 4.2 00:54:06 10° NNW 00:57:54 31° W 00:58:51 28° WSW
Cosmos 1606 3.7 00:55:40 10° N 00:59:14 35° ENE 00:59:45 34° E
Meteor 2-6 Rocket 4.4 00:53:57 10° N 00:59:48 69° ENE 01:02:05 38° SSE
Coronas F rocket 2.9 01:02:01 32° NNE 01:02:01 32° NNE 01:03:42 10° NNE
Cosmos 1689 Rocket 2.4 01:03:08 73° NW 01:03:08 73° NW 01:06:12 10° NNW
BREEZE-M DEB (TANK) 3.9 01:01:00 19° WSW 01:03:54 89° SSE 01:17:06 10° ENE
Cosmos 2237 Rocket 4.5 01:03:10 10° WNW 01:04:46 11° W 01:06:23 10° WSW
NOSS 2-3 (E) 4.4 01:02:31 22° WSW 01:05:46 62° NW 01:11:39 10° NE
Cosmos 2251 Rocket 3.8 01:05:58 10° NNW 01:11:10 54° WSW 01:12:29 43° SSW
Cosmos 1862 4.2 01:14:24 36° E 01:14:39 36° E 01:18:22 10° NNE
Cosmos 1892 3.0 01:17:14 52° WSW 01:17:35 55° WNW 01:21:20 10° N
Okean 2 Rocket 4.4 01:17:44 27° ESE 01:18:33 29° E 01:22:26 10° NNE
BREEZE-M DEB (TANK) 2.3 01:11:28 10° WNW 01:18:50 71° SSW 01:19:08 66° S
USA 234 4.4 01:14:34 10° E 01:20:39 43° NNE 01:26:45 10° NW
Cosmos 1408 3.7 01:21:00 33° E 01:21:03 33° E 01:24:28 10° NNE
Cosmos 2084 Rocket 3.5 01:20:57 49° W 01:21:43 61° NW 01:25:30 10° NNE
Nadezhda 3 Rocket 3.9 01:15:34 10° N 01:21:48 83° W 01:24:13 41° S
Cosmos 44 3.4 01:22:02 43° SSW 01:23:52 86° SE 01:29:22 10° NE
Cosmos 1674 Rocket 3.7 01:20:48 10° NNW 01:25:12 62° W 01:25:53 53° SW
Cosmos 921 Rocket 2.7 01:25:14 69° S 01:25:44 87° ESE 01:29:58 10° NNE
Cosmos 1607 3.9 01:20:26 10° NW 01:26:31 63° WSW 01:28:29 42° S
SeaSat 1 3.5 01:26:25 28° WSW 01:27:01 29° WSW 01:31:17 10° NW
Cosmos 1238 Rocket 2.5 01:24:34 10° N 01:28:33 79° E 01:28:33 79° E
NOSS 3-2 (C) 4.0 01:21:30 10° NW 01:28:57 78° NE 01:34:53 20° SE
Cosmos 494 Rocket 4.3 01:23:52 10° NNW 01:29:00 55° WSW 01:30:12 44° SSW
Cosmos 1867 3.8 01:27:49 10° NNW 01:33:19 68° NE 01:36:10 29° SE
CZ-2C R/B 3.6 01:31:37 32° SE 01:34:10 61° ENE 01:39:39 10° N
ASTEX 1 4.1 01:31:12 10° N 01:35:49 43° WNW 01:37:24 32° WSW
Cosmos 1975 Rocket 3.4 01:32:13 10° N 01:36:33 57° ENE 01:37:29 46° SE
CZ-4B R/B 3.0 01:37:08 27° W 01:37:08 27° W 01:39:43 10° NW
MOS 1-B Rocket 3.8 01:34:50 43° S 01:36:48 78° WSW 01:42:27 10° NNW
Cosmos 1356 Rocket 3.8 01:37:49 45° WSW 01:38:25 50° WNW 01:42:25 10° N
Cosmos 1825 2.4 01:38:20 55° ESE 01:38:28 55° E 01:42:12 10° NNE
GEOS 3 Rocket 4.1 01:38:27 38° SW 01:39:05 39° WSW 01:43:57 10° NW
Cosmos 1908 Rocket 3.5 01:44:43 60° SSW 01:45:25 76° W 01:49:48 10° N
Cosmos 2263 Rocket 2.4 01:46:18 42° SSE 01:47:56 57° ESE 01:53:30 10° NNE
BREEZE-M DEB (TANK) 4.4 01:33:41 10° WNW 01:49:59 69° SSW 01:53:16 23° SE
NOSS 3-2 (A) 3.9 01:43:53 10° NW 01:51:19 72° WSW 01:55:40 30° SSE
NOSS 3-4 (A) 3.5 01:50:43 39° SSW 01:53:12 70° SE 01:59:47 10° NE
NOSS 3-4 (C) 3.5 01:50:49 39° SSW 01:53:18 70° ESE 01:59:52 10° NE
Cosmos 2154 Rocket 4.4 01:50:46 32° SW 01:53:33 55° WNW 01:59:43 10° N
Cosmos 1295 Rocket 4.5 01:54:29 39° S 01:57:02 88° W 02:03:26 10° N
Cosmos 1242 Rocket 3.7 01:54:41 10° N 01:57:54 33° ENE 01:58:31 31° E
CZ-4C R/B 3.0 01:51:35 10° NW 01:58:29 57° WSW 02:01:44 34° S
Okean 3 3.5 01:55:33 10° NNW 01:59:51 70° W 02:00:29 59° SSW
Cosmos 1782 4.3 02:00:41 10° NW 02:03:52 23° W 02:04:04 23° W
CZ-2C R/B 2.7 02:01:47 10° N 02:06:58 65° WNW 02:08:48 39° SW
COSMOS 2406 3.9 02:06:14 10° NNW 02:11:54 53° ENE 02:16:31 15° SE
Cosmos 1190 Rocket 4.4 02:11:51 10° NNW 02:17:03 61° ENE 02:20:00 25° SE
Cosmos 2151 Rocket 4.1 02:16:30 39° SE 02:17:42 52° E 02:22:03 10° NNE
Cosmos 1943 3.9 02:16:45 10° NW 02:21:56 37° WSW 02:23:07 33° SW
BREEZE-M TANK 1.8 02:22:54 10° W 02:27:39 74° SSW 02:27:41 74° S
Cosmos 1371 Rocket 4.0 02:26:46 41° SSW 02:28:43 88° ESE 02:34:07 10° NNE
Cosmos 2056 Rocket 3.6 02:27:49 40° S 02:29:41 68° ESE 02:34:53 10° NNE
Cosmos 407 Rocket 3.8 02:25:43 10° NNW 02:30:51 65° ENE 02:34:05 23° SE
RESURS DK-1 2.3 02:33:53 52° SW 02:34:50 79° WNW 02:39:01 10° NNE
Meteor 2-19 Rocket 4.5 02:33:45 33° S 02:36:43 77° E 02:42:54 10° NNE
SL-8 Rocket 4.4 02:35:25 30° SW 02:38:20 53° WNW 02:44:32 10° N
Cosmos 676 Rocket 4.4 02:36:02 10° NNW 02:41:11 60° ENE 02:45:02 17° SE
Landsat 4 4.1 02:39:55 36° SE 02:41:14 61° ENE 02:44:59 10° N
Cosmos 1339 Rocket 4.4 02:37:19 10° N 02:43:25 79° W 02:46:27 31° S
Abrixas rocket 2.1 02:44:38 78° SW 02:44:49 85° SSE 02:48:12 10° ENE
Meteor 1-14 Rocket 4.3 02:43:50 34° SSW 02:46:33 76° WNW 02:52:26 10° N
Meteor 2-8 Rocket 4.5 02:40:41 10° NNW 02:46:43 68° W 02:49:38 32° SSW
GP-B 4.2 02:42:56 10° NNE 02:47:07 39° E 02:49:31 22° SE
NPP 4.4 02:42:35 10° NNE 02:47:44 44° E 02:50:39 24° SSE
SL-08 R/B 4.1 02:44:18 17° SE 02:47:51 51° ENE 02:52:35 10° N
Cosmos 909 Rocket 4.2 02:46:43 31° SSW 02:50:09 86° ESE 02:57:45 10° NE
Cosmos 2218 Rocket 4.4 02:47:11 29° SW 02:50:11 51° WNW 02:56:23 10° N
SL-27 R/B 2.5 02:50:44 10° NNW 02:54:24 84° ENE 02:55:31 43° SSE
Okean 2 Rocket 4.4 02:55:06 24° WSW 02:56:35 29° WNW 03:00:31 10° NNW
Iridium 4 Rocket 3.4 02:53:35 10° N 02:58:17 69° W 03:00:25 34° SSW
Cosmos 2366 rocket 4.5 02:59:26 27° SW 03:02:28 47° WNW 03:08:27 10° N
USA 234 3.2 02:56:47 10° SE 03:03:19 85° SW 03:09:55 10° NW
CZ-2D R/B 4.4 03:00:00 10° NE 03:03:31 17° E 03:07:02 10° SE
Cosmos 1954 Rocket 4.1 03:01:46 10° NNW 03:06:58 77° ENE 03:11:12 15° SSE
ATLAS 2A CENTAUR R/B 4.4 03:06:14 19° S 03:07:48 20° SSE 03:19:16 10° ESE
CENTAUR R/B 3.1 03:00:03 10° NW 03:07:51 89° NE 03:16:10 10° SE
ERS-2 3.0 03:05:21 10° NNE 03:08:56 43° E 03:10:25 28° SSE
Meteor 1-18 Rocket 4.3 03:03:30 10° NNW 03:09:04 61° W 03:12:03 28° SSW
JB-3 4.5 03:11:14 10° N 03:15:03 59° WNW 03:16:23 37° SW
Cosmos 1300 Rocket 3.5 03:13:47 33° S 03:15:41 88° E 03:20:05 10° N
BREEZE-M DEB (TANK) 4.0 03:13:09 10° WNW 03:16:56 65° NNE 03:31:04 10° E
Cosmos 1536 4.4 03:15:11 15° SE 03:17:56 30° E 03:21:30 10° NNE
Gbstr 26 Del rocket 3.1 03:17:42 36° S 03:18:49 48° SE 03:22:27 10° ENE
IRS-1C 4.5 03:16:36 10° NNE 03:21:54 60° E 03:25:27 21° S
IRAS Rocket 4.2 03:17:13 10° NNE 03:22:47 86° ESE 03:26:10 25° SSW
Cosmos 1812 3.0 03:19:37 10° NNW 03:23:24 50° W 03:24:38 35° SW
Meteor 1-20 Rocket 4.3 03:21:10 26° SSW 03:24:30 72° WNW 03:30:18 10° N
Cosmos 1844 Rocket 2.7 03:24:56 26° SSW 03:28:16 81° ESE 03:33:58 10° NNE
Cosmos 2263 Rocket 3.7 03:27:59 12° WSW 03:32:14 27° NW 03:37:02 10° N
USA 161 2.6 03:30:24 18° SE 03:32:17 43° ENE 03:35:08 10° N
ARIANE 5 R/B 3.6 03:28:50 10° NNE 03:33:29 38° E 03:37:47 12° SSE
Cosmos 1023 Rocket 4.4 03:28:42 10° NNW 03:33:50 87° ENE 03:38:55 10° SSE
Cosmos 1452 Rocket 3.5 03:32:25 26° SSW 03:35:28 76° WNW 03:40:46 10° NNE
IRS-P3 4.3 03:31:54 10° N 03:37:12 62° WNW 03:40:30 23° SW
Meteor 1-11 Rocket 4.0 03:33:27 19° S 03:37:54 74° E 03:43:53 10° NNE
Meteor 1-13 Rocket 4.2 03:33:35 10° NNW 03:39:17 76° W 03:44:05 15° S
Resurs 1-4 Rocket 3.4 03:36:45 10° NNE 03:41:37 35° E 03:46:25 10° SSE
Cosmos 1844 3.8 03:38:42 22° SSW 03:42:29 78° ESE 03:48:16 10° NNE
CBERS-1 4.0 03:38:32 10° N 03:43:41 74° WNW 03:47:04 22° SSW
Cosmos 1420 Rocket 4.2 03:41:07 20° S 03:44:46 70° ESE 03:50:02 10° NNE
Cosmos 1461 3.6 03:42:51 22° S 03:45:41 52° ESE 03:50:11 10° NE
ATLAS 5 CENTAUR R/B 2.5 03:41:35 10° NW 03:47:32 78° NE 03:53:54 10° SE
Cosmos 1356 4.5 03:46:43 15° SSE 03:49:18 42° E 03:52:41 10° NNE
Cosmos 1934 Rocket 4.0 03:44:41 19° SSW 03:49:19 78° W 03:55:29 10° N
NOSS 2-2 (D) 3.7 03:48:45 24° SSW 03:51:16 70° SE 03:56:09 10° NE
ADEOS 3.6 03:47:56 10° NNE 03:53:12 87° WNW 03:57:10 18° SSW
Meteor 1-23 Rocket 4.4 03:47:30 10° N 03:53:15 74° ENE 03:58:53 10° SSE
Okean 1 4.5 03:50:08 10° NNW 03:53:32 27° W 03:55:00 21° SW
Cosmos 2278 Rocket 2.4 03:50:51 18° S 03:55:07 68° ESE 04:00:47 10° NNE
Cosmos 1140 Rocket 3.5 03:50:05 10° NNW 03:55:10 62° WSW 04:00:12 10° S
COSMOS 2406 4.3 03:51:11 10° NW 03:55:53 26° WSW 03:58:32 19° SW
Cosmos 1400 Rocket 3.2 03:55:08 15° S 03:58:12 58° E 04:02:06 10° NNE
Okean 1 Rocket 3.9 03:58:17 20° SW 04:00:49 36° WNW 04:04:58 10° N
Timation 2 Rocket 4.0 03:55:32 10° NNW 04:01:45 85° ENE 04:07:45 10° SSE
COSMOS 2487 2.7 03:58:51 10° NNW 04:02:24 52° WSW 04:05:08 16° S
Cosmos 1633 2.5 04:00:12 19° S 04:02:45 84° E 04:06:25 10° N
UNK 4.0 03:58:28 10° SSE 04:03:03 71° ENE 04:07:43 10° N
UNK 4.0 03:57:17 17° SW 04:03:06 43° SSE 04:06:11 10° E
Meteor 2-15 Rocket 4.4 03:57:39 10° NNW 04:03:49 76° W 04:09:57 10° S
NOSS 2-2 (C) 3.6 04:02:48 20° SW 04:05:42 87° NW 04:10:40 10° NE
BREEZE-M DEB (TANK) 3.5 03:59:11 10° W 04:06:47 50° N 04:09:35 10° ENE
Cosmos 2082 Rocket 2.9 04:05:57 10° NNW 04:11:38 59° ENE 04:17:16 10° SE
Okean O Rocket 3.5 04:11:15 10° NE 04:14:55 26° E 04:18:35 10° SSE
Cosmos 1850 Rocket 4.1 04:10:03 10° NNW 04:15:09 55° WSW 04:20:17 10° S
Cosmos 1602 4.4 04:13:39 18° SW 04:16:07 39° WNW 04:19:45 10° N
Cosmos 1025 Rocket 3.5 04:12:40 10° NNW 04:16:46 43° W 04:20:15 14° SSW
Cosmos 1741 Rocket 4.2 04:13:02 10° NNW 04:18:10 53° WSW 04:23:15 10° S
Abrixas rocket 3.2 04:18:49 10° W 04:22:06 48° N 04:25:22 10° ENE
SME Rocket 2.9 04:19:35 10° SSE 04:23:18 77° WSW 04:27:44 10° NNW
Meteor 2-4 Rocket 3.7 04:18:20 10° NNW 04:23:40 60° W 04:28:54 10° S
Cosmos 1455 Rocket 3.2 04:19:14 10° S 04:23:41 81° E 04:28:10 10° N
Spot 4 Rocket 4.3 04:18:48 10° N 04:23:51 55° WNW 04:28:21 13° SW
Cosmos 1605 Rocket 4.2 04:21:37 13° SSW 04:27:10 57° WNW 04:33:23 10° N
Cosmos 1315 Rocket 3.0 04:23:12 10° S 04:27:16 76° E 04:31:18 10° NNE
SL-16 R/B 2.6 04:21:49 10° S 04:28:00 66° WSW 04:34:13 10° NNW
NOSS 2-2 (E) 4.2 04:27:12 13° WSW 04:31:00 52° NW 04:36:08 10° NNE
Cosmos 1346 Rocket 4.4 04:28:11 10° N 04:32:00 37° ENE 04:35:45 10° SE
USA 129 2.9 04:34:25 10° SSE 04:36:25 41° ENE 04:38:20 10° N
ERS-2 4.2 04:40:07 10° NNW 04:42:23 16° WNW 04:44:39 10° W
IRS-1D 3.7 04:38:30 10° N 04:43:29 56° WNW 04:48:21 10° SSW
CZ-2D R/B 2.3 04:38:40 10° N 04:44:07 72° WNW 04:49:34 10° SSW
Cosmos 1975 3.4 04:41:00 10° S 04:44:53 56° E 04:48:50 10° NNE
USA 234 4.1 04:41:41 10° S 04:46:55 25° SW 04:52:11 10° WNW
APEX 3.1 04:44:04 10° SSW 04:46:59 61° ESE 04:50:30 10° NNE
Okean 2 4.0 04:45:12 10° NNW 04:49:00 37° W 04:52:47 10° SSW
UNKNOWN OBJECT B 2.9 04:44:58 10° N 04:49:04 76° WNW 04:53:09 10° SSW
Cosmos 1544 Rocket 4.3 04:45:28 10° SW 04:49:36 39° WNW 04:53:45 10° N
Cosmos 1833 Rocket 2.7 04:46:05 10° NNW 04:51:45 89° WSW 04:57:22 10° SSE
Cosmos 1536 4.3 04:51:10 10° SW 04:54:25 23° WNW 04:57:42 10° NNW
CZ-2C R/B 3.8 04:51:21 10° SSE 04:56:06 84° WSW 05:00:55 10° NNW
CENTAUR R/B 4.1 04:51:53 10° WNW 04:57:54 24° WSW 05:04:07 10° SSW
PSLV R/B 4.1 04:57:34 10° NNE 05:01:46 80° ESE 05:05:52 10° S
Cosmos 2173 Rocket 4.0 04:56:37 10° SSW 05:02:42 75° W 05:08:54 10° N
Gbstr 26 Del rocket 3.7 05:01:59 10° W 05:05:40 42° NNW 05:09:16 10° NE
